Location: Azat
(46.0765°N, 1.7600°E)
Time: 03:07:48
(UTC+00:00)

Meteor 2-12 Rocket - Pass Details

Date: 09 April 2020
Orbit: 935 x 958 km, 82.5° (Epoch: 29 May)

Event Time Altitude Azimuth Distance (km) Brightness Sun altitude
Rises 20:46:44 0° 351° (N) 3,626 8.2 -21.7°
Reaches altitude 10° 20:49:14 10° 352° (N) 2,674 7.4 -22.0°
Maximum altitude 20:55:22 84° 80° (E) 952 4.3 -22.8°
Enters shadow 20:57:31 43° 165° (SSE) 1,296 4.7 -23.1°
